This is the latest recevied weather packets stored in our database for station/object AB0TJ. If no packets are shown the sender has not sent any weather packets the latest 10 day(s).
| Time | Temp. | Humidity | Pressure | Rain* | Wind** | Luminosity | Snow |
|---|---|---|---|---|---|---|---|
| 1777522564 | 12.78° C | 31% | 1016.5 hPa | 0 mm | - | 0 W/m² | - |
| 1777521980 | 13.33° C | 30% | 1016.7 hPa | 0 mm | - | 0 W/m² | - |
| 1777521489 | 13.89° C | 29% | 1016.4 hPa | 0 mm | - | 0 W/m² | - |
| 1777520926 | 13.89° C | 30% | 1016.3 hPa | 0 mm | - | 0 W/m² | - |
| 1777520399 | 14.44° C | 29% | 1016.2 hPa | 0 mm | - | 0 W/m² | - |
| 1777519909 | 14.44° C | 29% | 1016.1 hPa | 0 mm | - | 0 W/m² | - |
| 1777519414 | 15° C | 28% | 1016.1 hPa | 0 mm | - | 0 W/m² | - |
| 1777518862 | 15.56° C | 27% | 1015.8 hPa | 0 mm | - | 0 W/m² | - |
| 1777518329 | 15.56° C | 26% | 1015.7 hPa | 0 mm | - | 0 W/m² | - |
| 1777517834 | 15.56° C | 26% | 1015.5 hPa | 0 mm | - | 0 W/m² | - |
| 1777517289 | 15.56° C | 27% | 1015.6 hPa | 0 mm | - | 0 W/m² | - |
| 1777516699 | 15.56° C | 28% | 1015.2 hPa | 0 mm | - | 0 W/m² | - |
| 1777516119 | 16.11° C | 28% | 1015.4 hPa | 0 mm | - | 0 W/m² | - |
| 1777515546 | 16.67° C | 26% | 1014.9 hPa | 0 mm | - | 1 W/m² | - |
| 1777514959 | 17.22° C | 25% | 1015 hPa | 0 mm | - | 3 W/m² | - |
| 1777514414 | 17.22° C | 24% | 1014.9 hPa | 0 mm | - | 6 W/m² | - |
| 1777513879 | 17.78° C | 24% | 1014.8 hPa | 0 mm | - | 14 W/m² | - |
| 1777512284 | 18.89° C | 23% | 1014.6 hPa | 0 mm | - | 29 W/m² | - |
| 1777511772 | 19.44° C | 22% | 1014.7 hPa | 0 mm | - | 33 W/m² | - |
| 1777508038 | 21.67° C | 21% | 1014.5 hPa | 0 mm | - | 232 W/m² | - |
| 1777505393 | 20.56° C | 20% | 1014.4 hPa | 0 mm | - | 381 W/m² | - |
| 1777502052 | 20.56° C | 23% | 1014.8 hPa | 0 mm | - | 547 W/m² | - |
| 1777501089 | 20.56° C | 22% | 1014.8 hPa | 0 mm | - | 591 W/m² | - |
| 1777500524 | 20° C | 23% | 1014.9 hPa | 0 mm | - | 611 W/m² | - |
| 1777498933 | 20° C | 24% | 1015.2 hPa | 0 mm | - | 676 W/m² | - |
* Rain latest hour (hover to see other rain measurements)
** Current wind speed in m/s (hover to see current wind gust speed)